| time (UTC) | temp C | wind direction | speed KPH | gust KPH | rain 1hr cm | rain 24hr cm | rain mn cm | humidity % | barometer mb |
| 20260506204601 | 31 | 123 | 0.0 | 9.7 | 0.00 | 0.00 | 0.00 | 76 | 1007.3 |
| 20260506203059 | 31 | 123 | 1.6 | 12.9 | 0.00 | 0.00 | 0.00 | 77 | 1007.3 |
| 20260506201558 | 31 | 159 | 0.0 | 6.4 | 0.00 | 0.00 | 0.00 | 76 | 1007.3 |
| 20260506200059 | 31 | 228 | 0.0 | 11.3 | 0.00 | 0.00 | 0.00 | 77 | 1007.5 |
| 20260506194555 | 30 | 15 | 1.6 | 8.0 | 0.00 | 0.00 | 0.00 | 79 | 1007.7 |
| 20260506193055 | 30 | 107 | 0.0 | 9.7 | 0.00 | 0.00 | 0.00 | 78 | 1007.7 |
| 20260506191555 | 31 | 144 | 0.0 | 8.0 | 0.00 | 0.00 | 0.00 | 78 | 1007.8 |
| 20260506190058 | 31 | 121 | 0.0 | 8.0 | 0.00 | 0.00 | 0.00 | 78 | 1008.0 |
| 20260506184554 | 30 | 257 | 0.0 | 8.0 | 0.00 | 0.00 | 0.00 | 79 | 1008.2 |
| 20260506183050 | 30 | 217 | 0.0 | 9.7 | 0.00 | 0.00 | 0.00 | 81 | 1008.3 |
| 20260506181548 | 28 | 158 | 0.0 | 6.4 | 0.00 | 0.00 | 0.00 | 84 | 1008.6 |
| 20260506180048 | 28 | 216 | 0.0 | 3.2 | 0.00 | 0.00 | 0.00 | 85 | 1008.9 |
| 20260506174547 | 28 | 121 | 0.0 | 3.2 | 0.00 | 0.00 | 0.00 | 83 | 1009.3 |
| 20260506173121 | 29 | 127 | 0.0 | 3.2 | 0.00 | 0.00 | 0.00 | 82 | 1009.3 |
| 20260506171546 | 29 | 122 | 0.0 | 4.8 | 0.00 | 0.00 | 0.00 | 84 | 1009.4 |
| 20260506170045 | 28 | 117 | 0.0 | 6.4 | 0.00 | 0.00 | 0.00 | 86 | 1009.4 |
| 20260506164541 | 27 | 110 | 0.0 | 4.8 | 0.00 | 0.00 | 0.00 | 88 | 1009.5 |
| 20260506163040 | 27 | 101 | 0.0 | 6.4 | 0.00 | 0.00 | 0.00 | 90 | 1009.4 |
| 20260506161535 | 26 | 115 | 0.0 | 4.8 | 0.00 | 0.00 | 0.00 | 92 | 1009.3 |
| 20260506160034 | 26 | 114 | 0.0 | 3.2 | 0.00 | 0.00 | 0.00 | 91 | 1009.1 |
| 20260506154534 | 26 | 271 | 0.0 | 4.8 | 0.00 | 0.00 | 0.00 | 90 | 1009.1 |
| 20260506153032 | 26 | 98 | 0.0 | 4.8 | 0.00 | 0.00 | 0.00 | 89 | 1009.0 |
| 20260506151530 | 26 | 146 | 0.0 | 3.2 | 0.00 | 0.00 | 0.00 | 90 | 1008.7 |
| 20260506150028 | 26 | 129 | 0.0 | 6.4 | 0.00 | 0.00 | 0.00 | 89 | 1008.5 |
| 20260506144532 | 26 | 101 | 0.0 | 6.4 | 0.00 | 0.00 | 0.00 | 90 | 1008.2 |
| 20260506143026 | 26 | 127 | 1.6 | 6.4 | 0.00 | 0.00 | 0.00 | 91 | 1008.1 |
| 20260506141521 | 26 | 124 | 0.0 | 6.4 | 0.00 | 0.00 | 0.00 | 94 | 1008.1 |
| 20260506140018 | 25 | 338 | 0.0 | 6.4 | 0.00 | 0.00 | 0.00 | 95 | 1008.2 |
| 20260506134517 | 25 | 135 | 0.0 | 4.8 | 0.00 | 0.00 | 0.00 | 97 | 1008.3 |
| 20260506133013 | 24 | 121 | 0.0 | 3.2 | 0.00 | 0.00 | 0.00 | 98 | 1008.3 |
| 20260506131513 | 24 | 129 | 0.0 | 3.2 | 0.00 | 0.00 | 0.00 | 98 | 1008.4 |
| 20260506130011 | 23 | 115 | 0.0 | 1.6 | 0.00 | 0.00 | 0.00 | 98 | 1008.3 |
| 20260506124509 | 23 | 133 | 0.0 | 1.6 | 0.00 | 0.00 | 0.00 | 98 | 1008.4 |
| 20260506123008 | 23 | 133 | 0.0 | 0.0 | 0.00 | 0.00 | 0.00 | 98 | 1008.3 |
| 20260506121510 | 23 | 133 | 0.0 | 1.6 | 0.00 | 0.00 | 0.00 | 98 | 1008.0 |
| 20260506120014 | 23 | 133 | 0.0 | 0.0 | 0.00 | 0.00 | 0.00 | 98 | 1008.0 |
| 20260506114508 | 23 | 132 | 0.0 | 0.0 | 0.00 | 0.00 | 0.00 | 97 | 1007.7 |
| 20260506113006 | 23 | 133 | 0.0 | 0.0 | 0.00 | 0.00 | 0.00 | 97 | 1007.6 |
| 20260506111506 | 23 | 133 | 0.0 | 0.0 | 0.00 | 0.00 | 0.00 | 97 | 1007.4 |
| 20260506110006 | 23 | 101 | 0.0 | 3.2 | 0.00 | 0.00 | 0.00 | 97 | 1007.3 |
| 20260506104505 | 23 | 224 | 0.0 | 1.6 | 0.00 | 0.00 | 0.00 | 97 | 1007.2 |
| 20260506103006 | 23 | 105 | 0.0 | 1.6 | 0.00 | 0.00 | 0.00 | 97 | 1007.2 |
| 20260506101506 | 23 | 242 | 0.0 | 0.0 | 0.00 | 0.00 | 0.00 | 97 | 1007.3 |
| 20260506100003 | 23 | 223 | 0.0 | 3.2 | 0.00 | 0.00 | 0.00 | 97 | 1007.1 |
| 20260506094505 | 23 | 195 | 0.0 | 1.6 | 0.00 | 0.00 | 0.00 | 97 | 1007.0 |
| 20260506093003 | 23 | 242 | 0.0 | 1.6 | 0.00 | 0.00 | 0.00 | 97 | 1007.1 |
| 20260506091502 | 23 | 232 | 0.0 | 0.0 | 0.00 | 0.00 | 0.00 | 96 | 1007.0 |
| 20260506084623 | 23 | 114 | 0.0 | 3.2 | 0.00 | 0.00 | 0.00 | 96 | 1007.2 |
| 20260506083058 | 23 | 212 | 0.0 | 3.2 | 0.00 | 0.00 | 0.00 | 96 | 1007.2 |
| 20260506081600 | 23 | 105 | 0.0 | 3.2 | 0.00 | 0.00 | 0.00 | 96 | 1007.3 |
| 20260506073053 | 24 | 82 | 0.0 | 3.2 | 0.00 | 0.00 | 0.00 | 95 | 1007.8 |
| 20260506071551 | 24 | 217 | 0.0 | 0.0 | 0.00 | 0.00 | 0.00 | 95 | 1007.9 |
| 20260506061550 | 24 | 142 | 0.0 | 6.4 | 0.00 | 0.00 | 0.00 | 95 | 1008.2 |
| 20260506044636 | 24 | 262 | 0.0 | 4.8 | 0.00 | 0.00 | 0.00 | 94 | 1008.2 |
| 20260506043042 | 24 | 162 | 0.0 | 3.2 | 0.00 | 0.00 | 0.00 | 93 | 1008.0 |
| 20260506041553 | 24 | 129 | 0.0 | 4.8 | 0.00 | 0.00 | 0.00 | 93 | 1008.0 |
| 20260506040041 | 25 | 117 | 0.0 | 3.2 | 0.00 | 0.00 | 0.00 | 93 | 1008.0 |
| 20260506034610 | 25 | 124 | 0.0 | 8.0 | 0.00 | 0.00 | 0.00 | 92 | 1007.8 |
| 20260506033040 | 25 | 208 | 0.0 | 6.4 | 0.00 | 0.00 | 0.00 | 91 | 1007.5 |
| 20260506031543 | 25 | 192 | 0.0 | 6.4 | 0.00 | 0.00 | 0.00 | 90 | 1007.4 |
| 20260506030040 | 25 | 179 | 0.0 | 3.2 | 0.00 | 0.00 | 0.00 | 90 | 1007.4 |
| 20260506024539 | 25 | 127 | 0.0 | 4.8 | 0.00 | 0.00 | 0.00 | 90 | 1007.3 |
| 20260506023100 | 25 | 161 | 0.0 | 3.2 | 0.00 | 0.00 | 0.00 | 90 | 1007.1 |
| 20260506021539 | 25 | 141 | 0.0 | 3.2 | 0.00 | 0.00 | 0.00 | 89 | 1006.8 |
| 20260506020042 | 25 | 297 | 0.0 | 8.0 | 0.00 | 0.00 | 0.00 | 89 | 1006.7 |
| 20260506014539 | 25 | 221 | 0.0 | 8.0 | 0.00 | 0.00 | 0.00 | 88 | 1006.4 |
| 20260506013040 | 26 | 167 | 0.0 | 8.0 | 0.00 | 0.00 | 0.00 | 87 | 1006.1 |
| 20260506011538 | 26 | 192 | 1.6 | 6.4 | 0.00 | 0.00 | 0.00 | 87 | 1005.9 |
| 20260506010043 | 26 | 232 | 0.0 | 6.4 | 0.00 | 0.00 | 0.00 | 85 | 1006.0 |
| 20260506004558 | 26 | 150 | 1.6 | 9.7 | 0.00 | 0.00 | 0.00 | 84 | 1005.7 |
| 20260506003045 | 26 | 240 | 0.0 | 8.0 | 0.00 | 0.00 | 0.00 | 83 | 1005.6 |
| 20260506001539 | 27 | 127 | 0.0 | 4.8 | 0.00 | 0.00 | 0.00 | 82 | 1005.5 |
| 20260506000035 | 27 | 238 | 0.0 | 9.7 | 0.00 | 0.00 | 0.00 | 81 | 1005.6 |
| 20260505234555 | 27 | 276 | 4.8 | 12.9 | 0.00 | 0.00 | 0.00 | 80 | 1005.4 |
| 20260505233039 | 27 | 140 | 3.2 | 12.9 | 0.00 | 0.00 | 0.00 | 81 | 1005.6 |
| 20260505231535 | 27 | 201 | 1.6 | 6.4 | 0.00 | 0.00 | 0.00 | 80 | 1005.4 |
| 20260505230040 | 27 | 93 | 3.2 | 11.3 | 0.00 | 0.00 | 0.00 | 80 | 1005.5 |
| 20260505224538 | 27 | 234 | 3.2 | 19.3 | 0.00 | 0.00 | 0.00 | 80 | 1005.5 |
| 20260505223034 | 28 | 149 | 3.2 | 12.9 | 0.00 | 0.00 | 0.00 | 79 | 1005.7 |
| 20260505221533 | 28 | 211 | 3.2 | 16.1 | 0.00 | 0.00 | 0.00 | 79 | 1005.6 |
| 20260505220043 | 28 | 250 | 3.2 | 17.7 | 0.00 | 0.00 | 0.00 | 79 | 1005.9 |
| 20260505214536 | 28 | 269 | 3.2 | 9.7 | 0.00 | 0.00 | 0.00 | 79 | 1005.9 |
| 20260505213028 | 28 | 239 | 3.2 | 17.7 | 0.00 | 0.00 | 0.00 | 79 | 1006.1 |
| 20260505211527 | 28 | 219 | 3.2 | 16.1 | 0.00 | 0.00 | 0.00 | 79 | 1006.3 |
| 20260505210025 | 28 | 178 | 3.2 | 12.9 | 0.00 | 0.00 | 0.00 | 79 | 1006.5 |